Погода в Нивном

Россия / Брянская область     53°10′49″N   32°35′00″E
темп.,
°C
ветер,
м/с
пор.,
м/с
влажн.,
%
обл.,
%
осадки,
мм/ч
давл.,
гПа
погр.,
м
14 апреля, ср
ср1400:00+10ю239199 0.4 101858
03:00+10ю3691100 0.7 1018256
06:00+8ююв259655 0.1 1018109
09:00+11ююв368038 0.1 1018458
12:00+15ююв4659100 0.1 10171468
15:00+15ю3457100 0.3 10161246
18:00+14вюв246998 0.4 1016211
21:00+12вюв2380100 0.9 101666
15 апреля, чт
чт1500:00+10в1184100 0.0 101510
03:00+10ю1191100 0.9 101529
06:00+9ссз2394100 1.2 101485
09:00+10юв2490100 1.4 1014259
12:00+13в357174 1.1 1013670
15:00+14всв356589 3.2 1012740
18:00+11в4890100 4.5 1012529
21:00+11в5108783 8.9 1013409
16 апреля, пт
пт1600:00+9всв3994100 0.3 1013262
03:00+8св499590 0.8 1013214
06:00+9в4119089 0.0 1014424
09:00+11вюв598099 0.0 1015690
12:00+12в5777100 0.6 1015879
15:00+12в588069 1.9 1016780
18:00+13в46727 1.1 1016851
21:00+9в23869 1.5 101760
17 апреля, сб
сб1700:00+8вюв248769 0.1 101968
03:00+6вюв258988 0.1 1020101
06:00+6всв228550 0.0 102132
09:00+10св247699 0.0 1022312
12:00+13св457192 0.1 10211055
15:00+12св587999 0.1 1022985
18:00+11св4979100 0.0 1022935
21:00+11всв6137542 0.0 1022809
18 апреля, вс
вс1800:00+9св5148128 0.0 1022520
03:00+7всв5128242 0.0 1023423
06:00+7всв41080100 0.0 1024380
09:00+7всв4879100 0.0 1024404
12:00+10в4669100 0.0 1026785
15:00+12в4664100 0.1 10251408
18:00+10в5978100 0.1 1026728
21:00+9всв268619 0.1 1027192